Location: Usti nad Labem
(50.6670°N, 14.0330°E)
Time: 20:54:31
(UTC+01:00)

Envisat - Pass Details

Date: 02 December 2020
Orbit: 764 x 766 km, 98.1° (Epoch: 15 January)

Event Time Altitude Azimuth Distance (km) Brightness Sun altitude
Rises 05:39:23 0° 18° (NNE) 3,246 6.3 -19.0°
Reaches altitude 10° 05:41:47 10° 24° (NNE) 2,315 5.6 -18.6°
Maximum altitude 05:46:44 49° 99° (E) 983 4.0 -17.9°
Drops below altitude 10° 05:51:38 10° 174° (S) 2,297 5.7 -17.1°
Sets 05:54:00 0° 180° (S) 3,218 6.4 -16.8°
